GLOBALSTAR M077 [+]

Last updated on Fri Dec 29 2023 00:02:56 GMT+0000 (Coordinated Universal Time)

1 37191U 10054D 23362.12082519 -.00000069 00000+0 19647-3 0 9990 2 37191 52.0084 290.9348 0000716 47.7527 54.6776 12.62267812610068
UTC large
Height (km)
Speed (km/s)
/
Latitude / Longitude
Inclination (degrees)
Orbital Period (minutes)
Azimuth
Elevation
Range (km)
Doppler Factor

Next 0 passes for location: London (51.5072 / 0.1276)

Sorry there are no passes over London.